[[{"header":{"parameterUnit":"m.s-1","parameterCategory":1,"la1":30.2991,"la2":30.254,"lo1":-89.0895,"lo2":-89.0444,"dy":0.0017,"dx":0.0017,"nx":28,"ny":28,"refTime":"2025-09-15T21:00:00:Z","depth":0,"parameterNumber":2,"parameterNumberName":"U-component_of_WINDS"},"data":[0,0,0,0,0,0,0,0,0,0,0,0,0,0,0,0,0,0,0,0,0,0,0,0,0,0,0,0,0,0,0,0,0,0,0,0,0,0,0,0,0,0,0,0,0,0,0,0,0,0,0,0,0,0,0,0,0,0,0.7181,0.718,0,0.7126,0.7126,0.7125,0.7085,0.7085,0.7084,0.7084,0.7027,0.7026,0.7025,0,0,0,0,0,0,0,0,0,0,0,0,0,0.7248,0.7247,0.7181,0.718,0.7179,0.7126,0.7126,0.7125,0.7085,0.7085,0.7084,0.7084,0.7028,0.7026,0.7025,0,0,0,0,0,0,0,0,0,0,0,0,0,0.7209,0.7246,0.7181,0.7153,0.715,0.7126,0.7126,0.7125,0.7085,0.7085,0.7084,0.7084,0.7028,0.7026,0.7025,0.7024,0,0,0.7019,0.7018,0,0,0,0,0,0,0,0,0.7211,0.7206,0.7158,0.7155,0.7152,0.7112,0.7128,0.7091,0.7085,0.711,0.7084,0.7083,0.7056,0.7052,0.7043,0.7021,0.7019,0.7019,0.7018,0.7017,0.7017,0,0,0,0,0,0,0,0.7214,0.7208,0.7159,0.7157,0.7153,0.7143,0.7136,0.7121,0.7086,0.7108,0.7105,0.7099,0.7054,0.7044,0.7041,0.7018,0.7019,0.7017,0.7016,0.7016,0.699,0.6991,0,0,0,0,0,0,0.7221,0.7211,0.7161,0.7157,0.7181,0.7142,0.7135,0.7125,0.7086,0.708,0.7099,0.7097,0.7048,0.7043,0.7039,0.7033,0.7017,0.7015,0.7014,0.699,0.699,0.6991,0,0,0,0,0,0,0.7222,0.7217,0.7163,0.7183,0.7176,0.7141,0.713,0.7124,0.7115,0.708,0.7073,0.7096,0.7047,0.7041,0.7027,0.7031,0.7015,0.7013,0.6989,0.699,0.6991,0.7024,0,0,0,0,0,0,0.7225,0.7218,0.7218,0.7184,0.7175,0.7153,0.7131,0.7124,0.7112,0.7108,0.7075,0.7069,0.7046,0.703,0.7026,0.7028,0.7012,0.6989,0.699,0.699,0.7022,0.7025,0.7028,0,0,0,0,0,0.7227,0.7229,0.7218,0.7212,0.7174,0.7154,0.7148,0.7122,0.7112,0.7111,0.7089,0.707,0.7032,0.7029,0.7023,0.7026,0.6989,0.6989,0.699,0.7021,0.7025,0.7028,0,0,0,0,0,0,0.7265,0.7224,0.7211,0.7203,0.7182,0.7147,0.7145,0.7128,0.7109,0.7107,0.7074,0.7067,0.7056,0.704,0.7038,0.7021,0.7007,0.7007,0.7033,0.7036,0.7039,0.7043,0.701,0,0,0,0,0,0.7272,0.726,0.7225,0.7221,0.7211,0.718,0.717,0.7152,0.7129,0.7119,0.7096,0.7074,0.7056,0.7045,0.7028,0.702,0.7011,0.7018,0.7021,0.7024,0.7024,0.7016,0.7019,0.6994,0.6994,0.6994,0,0,0.7287,0.7264,0.7258,0.7228,0.7209,0.7196,0.7173,0.716,0.7149,0.7117,0.7102,0.7084,0.7057,0.7046,0.7039,0.7031,0.7029,0.7025,0.7028,0.7026,0.7017,0.702,0.7022,0.6994,0.6994,0.6994,0,0,0.7307,0.7289,0.7282,0.7264,0.7237,0.7216,0.7214,0.7182,0.7168,0.7153,0.7128,0.7114,0.7086,0.7067,0.7053,0.7065,0.7046,0.706,0.7075,0.7068,0.707,0.7072,0.7074,0.7075,0.706,0.706,0.706,0,0.7329,0.7309,0.7281,0.7269,0.7256,0.7227,0.7219,0.7202,0.7171,0.7161,0.7153,0.7115,0.7095,0.7078,0.708,0.7071,0.7067,0.7063,0.7072,0.7073,0.7074,0.7076,0.7077,0.7062,0.7062,0.7061,0.7061,0,0.7336,0.7322,0.732,0.7289,0.7276,0.7266,0.7236,0.7226,0.7208,0.7188,0.7171,0.7146,0.7122,0.7116,0.71,0.7096,0.7092,0.7078,0.7063,0.7079,0.708,0.708,0.7064,0.7064,0.7063,0.7063,0,0,0.7378,0.7332,0.7331,0.7316,0.7283,0.7271,0.726,0.7236,0.7227,0.7205,0.7194,0.7169,0.7156,0.7141,0.7121,0.7115,0.7123,0.7102,0.7101,0.7106,0.7116,0.7125,0.7126,0.7111,0.7111,0.7111,0.7117,0,0.7391,0.7369,0.7344,0.733,0.7316,0.7287,0.7276,0.7254,0.7235,0.7219,0.7197,0.718,0.7165,0.7155,0.7148,0.7124,0.7125,0.7123,0.7098,0.7098,0.7105,0.7127,0.7137,0.7144,0.7118,0.7118,0.7118,0,0.7404,0.7384,0.7369,0.7335,0.7328,0.732,0.7295,0.7281,0.7254,0.724,0.7223,0.7202,0.7186,0.7174,0.7152,0.7151,0.7139,0.7126,0.7126,0.7121,0.7108,0.7122,0.7146,0.7147,0.7118,0.7118,0.7118,0,0.7434,0.7403,0.7389,0.7378,0.7339,0.7333,0.7317,0.729,0.7277,0.7255,0.7246,0.7222,0.7209,0.7191,0.7164,0.7158,0.7143,0.7129,0.713,0.7131,0.7127,0.7128,0.7149,0.7122,0.7122,0.7122,0.7122,0,0.7451,0.7442,0.7402,0.7394,0.7383,0.7353,0.7343,0.7323,0.73,0.7286,0.726,0.7248,0.7213,0.7196,0.7174,0.7157,0.7152,0.7139,0.7133,0.7141,0.7142,0.7132,0.713,0.7123,0.7123,0.7122,0.7122,0,0.7482,0.7455,0.7438,0.7402,0.7393,0.7387,0.7356,0.7346,0.7325,0.7307,0.7302,0.7268,0.7246,0.7217,0.7187,0.7172,0.7158,0.715,0.7167,0.7163,0.7165,0.7165,0.7179,0.7178,0.7154,0.7154,0.7155,0,0.7493,0.7486,0.745,0.7439,0.7423,0.7406,0.7392,0.7363,0.7349,0.7318,0.7311,0.7288,0.7267,0.7234,0.7206,0.7182,0.7172,0.7179,0.7168,0.7175,0.717,0.7171,0.7169,0.7181,0.7181,0.7182,0.7182,0,0.7516,0.7503,0.7485,0.7461,0.7446,0.7426,0.7404,0.7397,0.7362,0.7348,0.7326,0.731,0.7279,0.7255,0.7227,0.7209,0.7189,0.7186,0.7184,0.7191,0.7201,0.7194,0.7172,0.7185,0.7185,0.7185,0.7184,0.7184,0.7537,0.7528,0.7501,0.7481,0.7462,0.7442,0.7431,0.7408,0.7389,0.7361,0.7345,0.7323,0.7295,0.7256,0.7238,0.7219,0.7212,0.721,0.721,0.7209,0.7211,0.7205,0.7214,0.7214,0.7214,0.7214,0.7214,0,0.7557,0.7538,0.752,0.7491,0.7474,0.7458,0.7434,0.7421,0.7402,0.7378,0.7358,0.7332,0.7309,0.7279,0.7253,0.7244,0.7234,0.7238,0.7237,0.7233,0.722,0.7223,0.7246,0.7246,0.7246,0.7246,0.7246,0.7246,0.7565,0.7549,0.7533,0.7507,0.7488,0.7466,0.7453,0.7435,0.7415,0.7387,0.7368,0.7349,0.7322,0.7294,0.7271,0.7263,0.7254,0.726,0.7249,0.7237,0.7234,0.7232,0.7234,0.7259,0.7259,0.7263,0.7263,0.7263]},{"header":{"parameterUnit":"m.s-1","parameterCategory":1,"la1":30.2991,"la2":30.254,"lo1":-89.0895,"lo2":-89.0444,"dy":0.0017,"dx":0.0017,"nx":28,"ny":28,"refTime":"2025-09-15T21:00:00:Z","depth":0,"parameterNumber":3,"parameterNumberName":"V-component_of_WINDS"},"data":[0,0,0,0,0,0,0,0,0,0,0,0,0,0,0,0,0,0,0,0,0,0,0,0,0,0,0,0,0,0,0,0,0,0,0,0,0,0,0,0,0,0,0,0,0,0,0,0,0,0,0,0,0,0,0,0,0,0,1.4142,1.4142,0,1.4165,1.4166,1.4166,1.414,1.4139,1.4138,1.4137,1.4162,1.4163,1.4165,0,0,0,0,0,0,0,0,0,0,0,0,0,1.4073,1.4075,1.4142,1.4142,1.4142,1.4165,1.4166,1.4166,1.414,1.4139,1.4138,1.4137,1.4161,1.4163,1.4165,0,0,0,0,0,0,0,0,0,0,0,0,0,1.4101,1.4075,1.4142,1.4132,1.4132,1.4165,1.4166,1.4166,1.414,1.4139,1.4137,1.4136,1.416,1.4163,1.4165,1.4209,0,0,1.4172,1.4173,0,0,0,0,0,0,0,0,1.4099,1.4103,1.4133,1.4133,1.4132,1.4148,1.415,1.4181,1.4141,1.4137,1.4137,1.4135,1.4158,1.4161,1.4168,1.421,1.4211,1.4172,1.4174,1.4175,1.4176,0,0,0,0,0,0,0,1.4097,1.4102,1.4151,1.4134,1.4133,1.4126,1.4129,1.4156,1.4156,1.4137,1.4135,1.4139,1.4158,1.4166,1.4169,1.4212,1.4172,1.4175,1.4176,1.4177,1.4289,1.429,0,0,0,0,0,0,1.4096,1.4101,1.415,1.4152,1.4112,1.4129,1.4131,1.4145,1.4155,1.4156,1.414,1.4137,1.4163,1.4166,1.417,1.422,1.4175,1.4177,1.4178,1.4287,1.4289,1.4291,0,0,0,0,0,0,1.4095,1.4101,1.4149,1.4126,1.4131,1.4132,1.4147,1.4146,1.4154,1.4157,1.4157,1.4149,1.4162,1.4166,1.4199,1.4221,1.4178,1.418,1.4285,1.4288,1.429,1.4324,0,0,0,0,0,0,1.4093,1.4101,1.4118,1.4126,1.4133,1.4179,1.4148,1.4147,1.4158,1.4155,1.4165,1.4166,1.4161,1.4196,1.4201,1.4223,1.4182,1.4283,1.4286,1.4289,1.432,1.4327,1.4332,0,0,0,0,0,1.4091,1.4127,1.4119,1.4125,1.4154,1.418,1.4184,1.4178,1.416,1.4177,1.4179,1.4165,1.4218,1.4199,1.4205,1.4229,1.4282,1.4285,1.4289,1.4318,1.4326,1.4332,0,0,0,0,0,0,1.4123,1.4128,1.4119,1.416,1.4169,1.4176,1.4197,1.4186,1.4202,1.4198,1.419,1.4192,1.4227,1.4231,1.421,1.4271,1.4247,1.4252,1.4267,1.4274,1.428,1.4278,1.4184,0,0,0,0,0,1.4134,1.4155,1.4159,1.4194,1.4199,1.4197,1.4209,1.4203,1.4213,1.4217,1.4221,1.4231,1.425,1.4262,1.428,1.4321,1.4322,1.434,1.4345,1.435,1.4354,1.4375,1.4382,1.4302,1.4302,1.4302,0,0,1.4159,1.4164,1.4178,1.42,1.4207,1.4228,1.4201,1.4225,1.424,1.4221,1.4251,1.4255,1.4265,1.4302,1.4318,1.4306,1.4377,1.4355,1.4358,1.436,1.4379,1.4387,1.4393,1.4305,1.4304,1.4304,0,0,1.4213,1.422,1.4249,1.4256,1.4267,1.4265,1.4272,1.428,1.4281,1.4311,1.4296,1.4314,1.4347,1.4354,1.4362,1.4417,1.4405,1.4423,1.4454,1.4473,1.448,1.4485,1.4503,1.451,1.4428,1.4428,1.4428,0,1.4243,1.4274,1.4266,1.429,1.4299,1.4281,1.431,1.4317,1.4333,1.434,1.4327,1.4365,1.4372,1.4409,1.4422,1.443,1.4436,1.4422,1.4479,1.4485,1.449,1.4507,1.4514,1.443,1.4429,1.4429,1.4429,0,1.4308,1.433,1.4352,1.4366,1.4378,1.4405,1.44,1.4413,1.4405,1.4405,1.4435,1.4441,1.4459,1.4467,1.4461,1.4503,1.4495,1.4481,1.4456,1.45,1.4516,1.4522,1.4433,1.4432,1.4431,1.4431,0,0,1.4385,1.4393,1.4401,1.4406,1.4416,1.4432,1.4457,1.4473,1.4484,1.4495,1.4515,1.4542,1.4528,1.4537,1.4531,1.4548,1.4589,1.4531,1.4531,1.4541,1.4634,1.4645,1.4653,1.4581,1.4583,1.4584,1.4633,0,1.4439,1.4481,1.4474,1.4515,1.4534,1.4516,1.4537,1.4545,1.4545,1.456,1.456,1.4578,1.4559,1.4564,1.4581,1.4581,1.4608,1.4577,1.4599,1.46,1.4596,1.4661,1.4673,1.4719,1.4639,1.4641,1.4641,0,1.4508,1.452,1.4563,1.4567,1.4574,1.4594,1.4607,1.4622,1.463,1.4628,1.4637,1.4628,1.4651,1.4627,1.4658,1.4638,1.4646,1.4647,1.4649,1.465,1.4623,1.4663,1.4734,1.474,1.4651,1.4651,1.465,0,1.4558,1.4585,1.4613,1.4619,1.4625,1.4638,1.4641,1.4648,1.4657,1.4668,1.4674,1.4689,1.4696,1.4707,1.4701,1.4684,1.4734,1.4709,1.4732,1.4732,1.4743,1.4742,1.4815,1.475,1.475,1.475,1.475,0,1.4618,1.4645,1.4636,1.4653,1.4682,1.4672,1.4701,1.4702,1.4707,1.4724,1.471,1.4726,1.4717,1.4732,1.4727,1.4753,1.4757,1.4756,1.4754,1.4757,1.4757,1.4762,1.4758,1.4752,1.4751,1.4751,1.475,0,1.4679,1.4674,1.4704,1.4706,1.4707,1.4728,1.473,1.4746,1.4743,1.4765,1.4769,1.4766,1.4783,1.4777,1.4796,1.4793,1.4825,1.482,1.4823,1.4821,1.4844,1.4841,1.4922,1.4931,1.4861,1.4861,1.4862,0,1.4718,1.4738,1.4741,1.4751,1.4755,1.4771,1.478,1.4771,1.4781,1.479,1.4804,1.482,1.4832,1.4859,1.4858,1.4872,1.4866,1.4893,1.4868,1.487,1.4865,1.4864,1.4865,1.4898,1.4899,1.49,1.49,0,1.4786,1.4782,1.4796,1.4808,1.4819,1.4828,1.4836,1.4845,1.4836,1.4848,1.4864,1.4873,1.4891,1.4906,1.4918,1.4921,1.4909,1.4908,1.4914,1.4916,1.4917,1.4915,1.4835,1.4906,1.4906,1.4905,1.4905,1.4905,1.4837,1.4852,1.4857,1.4872,1.4876,1.4883,1.4898,1.4896,1.491,1.4923,1.4917,1.4936,1.4941,1.4956,1.496,1.4974,1.4964,1.4972,1.4975,1.4977,1.4979,1.4915,1.4976,1.4976,1.4976,1.4976,1.4976,0,1.4903,1.4905,1.4918,1.4929,1.494,1.4927,1.4935,1.4945,1.4961,1.4967,1.4978,1.4996,1.501,1.501,1.5023,1.5034,1.5029,1.5038,1.5036,1.5037,1.4988,1.4981,1.5041,1.5041,1.5041,1.5041,1.5041,1.5041,1.4939,1.4965,1.4961,1.4988,1.4989,1.5006,1.5012,1.5018,1.5022,1.5042,1.5054,1.5053,1.5056,1.5068,1.508,1.5079,1.5084,1.5095,1.5092,1.5047,1.504,1.5034,1.5028,1.5096,1.5097,1.5139,1.514,1.514]}]]